Location: Eaton Estates
(41.3089°N, 82.0057°W)
Time: 13:10:35
(UTC+00:00)

Cosmos 1346 Rocket - Pass Details

Date: 17 June 2021
Orbit: 526 x 551 km, 81.2° (Epoch: 26 July)

Event Time Altitude Azimuth Distance (km) Brightness Sun altitude
Exits shadow 04:40:29 44° 279° (W) 762 3.6 -24.3°
Maximum altitude 04:40:35 44° 283° (WNW) 761 3.6 -24.3°
Drops below altitude 10° 04:44:26 10° 357° (N) 1,826 6.5 -24.5°
Sets 04:46:42 0° 4° (N) 2,727 7.6 -24.6°
